Location: Louise
(35.0765°N, 90.2937°W)
Time: 06:33:50
(UTC+00:00)

Daily predictions for brighter satellites

Satellite Brightness Start Highest point End
(mag) Time Altitude Azimuth Time Altitude Azimuth Time Altitude Azimuth
CBERS-1 4.0 12:02:48 10° N 12:07:53 74° WNW 12:12:58 10° SSW
Cosmos 1025 Rocket 3.3 12:03:58 10° SSW 12:08:09 47° W 12:12:21 10° N
CORIOLIS 4.2 23:13:50 10° SSE 23:19:07 63° ENE 23:24:24 10° N
CBERS-1 4.4 23:14:21 10° S 23:19:26 72° WSW 23:24:32 10° NNW
Cosmos 407 Rocket 3.6 23:18:26 10° S 23:23:30 54° ESE 23:28:32 10° NNE
ISS -2.7 23:21:01 10° WSW 23:24:11 41° NW 23:27:24 10° NE
CZ-2D R/B 3.2 23:22:14 10° SE 23:25:11 38° ENE 23:28:09 10° N
SL-12 R/B(2) 4.2 23:18:09 10° SSW 23:25:40 80° ESE 23:34:39 10° NNE
Cosmos 1943 Rocket 2.3 23:22:25 10° S 23:27:53 55° ESE 23:33:21 10° NNE
Cosmos 2278 Rocket 2.4 23:22:48 10° S 23:28:15 53° ESE 23:33:44 10° NNE
OAO 3 Rocket 3.3 23:23:59 10° WSW 23:28:37 65° SSE 23:33:11 10° E
Cosmos 2082 Rocket 3.8 23:27:47 10° NNE 23:30:16 13° NE 23:32:46 10° E
Aureole 3 Rocket 3.3 23:27:44 10° SSE 23:30:25 25° E 23:32:58 10° NE
IRS-1C 4.2 23:25:24 10° SSE 23:30:37 61° ENE 23:35:51 10° N
Cosmos 1975 Rocket 3.2 23:30:07 10° N 23:34:22 51° E 23:38:37 10° SSE
ATLAS 5 CENTAUR R/B 2.3 23:32:06 10° NNW 23:36:36 43° ENE 23:42:05 10° SE
MOS 1 Rocket 3.6 23:35:13 10° SE 23:39:04 34° ENE 23:43:01 10° N
SAR-Lupe-1 3.9 23:35:49 10° SSE 23:39:21 72° ENE 23:42:55 10° N
COSMO-SKYMED 1 3.4 23:37:55 10° NE 23:41:25 26° E 23:44:54 10° SSE
USA 215 3.3 23:35:17 10° ESE 23:41:42 63° NE 23:48:08 10° NW
SKYMED 2 3.8 23:41:37 10° NNE 23:45:49 46° E 23:49:59 10° S
Helios 1A Rocket 3.3 23:43:18 10° NE 23:46:16 28° E 23:49:13 10° SSE
SAR-Lupe-4 4.1 23:48:00 10° S 23:51:31 61° WSW 23:55:04 10° NNW
RESURS DK-1 3.4 23:52:31 10° N 23:55:47 23° ENE 23:57:10 19° E
